Wetterdaten: Woche 21.07.14 - 27.07.14 (KW30)
Datum Zeit Temperatur Luftfeuchte Luftdruck Niederschlag Windrichtung Sonnenschein Solar Wind
21.07.2014 00:00 18,3 C 82 % 1009,2 hPa 0,2 l/m W-SW 0,00 h 0 W/m 12,5 km/h (3 Bft)
21.07.2014 01:00 17,2 C 87 % 1009,2 hPa 0,2 l/m W 0,00 h 0 W/m 16,6 km/h (3 Bft)
21.07.2014 02:00 16,2 C 90 % 1009,6 hPa 1,8 l/m SW 0,00 h 0 W/m 8,0 km/h (2 Bft)
21.07.2014 03:00 15,4 C 95 % 1009,0 hPa 0,0 l/m SW 0,00 h 0 W/m 6,6 km/h (2 Bft)
21.07.2014 04:00 15,0 C 96 % 1008,9 hPa 0,0 l/m SW 0,00 h 0 W/m 11,5 km/h (2 Bft)
21.07.2014 05:00 15,0 C 97 % 1008,7 hPa 0,0 l/m SW 0,00 h 0 W/m 7,8 km/h (2 Bft)
21.07.2014 06:00 15,0 C 97 % 1008,7 hPa 0,0 l/m SW 0,00 h 12 W/m 9,3 km/h (2 Bft)
21.07.2014 07:00 15,0 C 96 % 1008,9 hPa 0,0 l/m W-SW 0,00 h 43 W/m 8,6 km/h (2 Bft)
21.07.2014 08:00 15,2 C 94 % 1008,9 hPa 0,0 l/m W-SW 0,00 h 53 W/m 14,0 km/h (3 Bft)
21.07.2014 09:00 15,7 C 93 % 1009,3 hPa 0,0 l/m SW 0,00 h 83 W/m 14,0 km/h (3 Bft)
21.07.2014 10:00 16,2 C 90 % 1009,3 hPa 0,0 l/m SW 0,00 h 145 W/m 13,2 km/h (3 Bft)
21.07.2014 11:00 16,7 C 89 % 1009,8 hPa 0,0 l/m W 0,00 h 87 W/m 11,7 km/h (2 Bft)
21.07.2014 12:00 16,9 C 89 % 1010,1 hPa 0,0 l/m SW 0,00 h 142 W/m 10,9 km/h (2 Bft)
21.07.2014 13:00 17,6 C 86 % 1009,9 hPa 0,0 l/m SW 0,00 h 177 W/m 14,9 km/h (3 Bft)
21.07.2014 14:00 18,2 C 84 % 1009,8 hPa 0,0 l/m S-SW 0,00 h 169 W/m 15,3 km/h (3 Bft)
21.07.2014 15:00 17,4 C 89 % 1009,9 hPa 0,2 l/m S-SW 0,00 h 93 W/m 14,2 km/h (3 Bft)
21.07.2014 16:00 16,7 C 94 % 1010,0 hPa 0,6 l/m SW 0,00 h 67 W/m 13,6 km/h (3 Bft)
21.07.2014 17:00 16,6 C 96 % 1010,2 hPa 0,8 l/m SW 0,00 h 57 W/m 13,4 km/h (3 Bft)
21.07.2014 18:00 15,8 C 97 % 1010,3 hPa 1,4 l/m S-SW 0,00 h 32 W/m 12,8 km/h (3 Bft)
21.07.2014 19:00 15,7 C 98 % 1010,4 hPa 1,4 l/m SW 0,00 h 23 W/m 9,1 km/h (2 Bft)
21.07.2014 20:00 15,7 C 98 % 1010,5 hPa 0,6 l/m SW 0,00 h 10 W/m 5,6 km/h (1 Bft)
21.07.2014 21:00 15,7 C 98 % 1010,7 hPa 1,0 l/m SW 0,00 h 0 W/m 4,1 km/h (1 Bft)
21.07.2014 22:00 15,7 C 99 % 1010,7 hPa 0,4 l/m SW 0,00 h 0 W/m 4,9 km/h (1 Bft)
21.07.2014 23:00 15,8 C 99 % 1010,2 hPa 0,0 l/m SW 0,00 h 0 W/m 6,3 km/h (2 Bft)
22.07.2014 00:00 15,8 C 99 % 1010,3 hPa 3,0 l/m SW 0,00 h 0 W/m 1,1 km/h (0 Bft)
22.07.2014 01:00 15,9 C 99 % 1009,8 hPa 2,8 l/m W-NW 0,00 h 0 W/m 8,9 km/h (2 Bft)
22.07.2014 02:00 16,1 C 99 % 1008,8 hPa 1,8 l/m W-NW 0,00 h 0 W/m 7,9 km/h (2 Bft)
22.07.2014 03:00 16,2 C 99 % 1008,3 hPa 5,2 l/m W-NW 0,00 h 0 W/m 9,8 km/h (2 Bft)
22.07.2014 04:00 16,2 C 99 % 1007,9 hPa 1,8 l/m W-NW 0,00 h 0 W/m 14,4 km/h (3 Bft)
22.07.2014 05:00 16,3 C 99 % 1007,8 hPa 2,0 l/m NW 0,00 h 0 W/m 13,4 km/h (3 Bft)
22.07.2014 06:00 16,4 C 99 % 1008,2 hPa 0,4 l/m N-NW 0,00 h 9 W/m 11,0 km/h (2 Bft)
22.07.2014 07:00 16,7 C 99 % 1008,4 hPa 0,4 l/m N-NW 0,00 h 42 W/m 10,3 km/h (2 Bft)
22.07.2014 08:00 16,9 C 99 % 1008,7 hPa 1,0 l/m N-NW 0,00 h 41 W/m 11,7 km/h (2 Bft)
22.07.2014 09:00 17,2 C 99 % 1009,0 hPa 0,0 l/m N 0,00 h 67 W/m 10,8 km/h (2 Bft)
22.07.2014 10:00 18,0 C 99 % 1009,2 hPa 0,2 l/m N 0,00 h 110 W/m 9,7 km/h (2 Bft)
22.07.2014 11:00 18,2 C 98 % 1009,6 hPa 5,0 l/m N-NO 0,00 h 53 W/m 9,3 km/h (2 Bft)
22.07.2014 12:00 18,1 C 99 % 1010,1 hPa 8,0 l/m NO 0,00 h 75 W/m 14,6 km/h (3 Bft)
22.07.2014 13:00 18,9 C 97 % 1010,3 hPa 3,4 l/m NO 0,00 h 80 W/m 9,7 km/h (2 Bft)
22.07.2014 14:00 18,1 C 98 % 1010,7 hPa 16,2 l/m O-NO 0,00 h 80 W/m 9,0 km/h (2 Bft)
22.07.2014 15:00 17,9 C 98 % 1011,2 hPa 4,2 l/m O-NO 0,00 h 77 W/m 11,0 km/h (2 Bft)
22.07.2014 16:00 18,1 C 99 % 1011,6 hPa 1,0 l/m NO 0,00 h 87 W/m 7,2 km/h (2 Bft)
22.07.2014 17:00 19,0 C 98 % 1011,4 hPa 0,2 l/m NO 0,00 h 186 W/m 8,2 km/h (2 Bft)
22.07.2014 18:00 19,7 C 94 % 1011,6 hPa 0,0 l/m NO 0,08 h 153 W/m 6,4 km/h (2 Bft)
22.07.2014 19:00 19,6 C 96 % 1011,9 hPa 0,6 l/m NO 0,00 h 56 W/m 4,9 km/h (1 Bft)
22.07.2014 20:00 19,0 C 98 % 1012,5 hPa 0,0 l/m NO 0,00 h 13 W/m 5,9 km/h (2 Bft)
22.07.2014 21:00 18,5 C 98 % 1012,9 hPa 0,0 l/m NO 0,00 h 0 W/m 5,6 km/h (1 Bft)
22.07.2014 22:00 17,8 C 98 % 1013,2 hPa 0,0 l/m NO 0,00 h 0 W/m 2,8 km/h (1 Bft)
22.07.2014 23:00 17,1 C 99 % 1013,3 hPa 0,0 l/m N-NO 0,00 h 0 W/m 6,1 km/h (2 Bft)
23.07.2014 00:00 16,5 C 99 % 1013,2 hPa 0,2 l/m N-NO 0,00 h 0 W/m 2,3 km/h (1 Bft)
23.07.2014 01:00 16,0 C 99 % 1013,1 hPa 0,0 l/m N-NO 0,00 h 0 W/m 3,3 km/h (1 Bft)
23.07.2014 02:00 15,0 C 99 % 1013,0 hPa 0,0 l/m N 0,00 h 0 W/m 0,1 km/h (0 Bft)
23.07.2014 03:00 14,3 C 99 % 1012,8 hPa 0,0 l/m N 0,00 h 0 W/m 0,4 km/h (0 Bft)
23.07.2014 04:00 14,1 C 100 % 1012,7 hPa 0,0 l/m N-NO 0,00 h 0 W/m 2,7 km/h (1 Bft)
23.07.2014 05:00 14,3 C 100 % 1012,9 hPa 0,0 l/m N-NO 0,00 h 6 W/m 5,9 km/h (2 Bft)
23.07.2014 06:00 14,1 C 100 % 1013,2 hPa 0,0 l/m N 0,00 h 29 W/m 3,2 km/h (1 Bft)
23.07.2014 07:00 15,3 C 100 % 1013,0 hPa 0,0 l/m N-NO 0,58 h 149 W/m 3,1 km/h (1 Bft)
23.07.2014 08:00 16,9 C 94 % 1013,2 hPa 0,0 l/m NO 0,92 h 290 W/m 10,1 km/h (2 Bft)
23.07.2014 09:00 18,7 C 87 % 1013,1 hPa 0,0 l/m O-NO 1,00 h 479 W/m 13,7 km/h (3 Bft)
23.07.2014 10:00 20,3 C 80 % 1012,8 hPa 0,0 l/m NO 0,83 h 584 W/m 17,7 km/h (3 Bft)
23.07.2014 11:00 21,8 C 74 % 1012,4 hPa 0,0 l/m O-NO 1,00 h 675 W/m 18,6 km/h (3 Bft)
23.07.2014 12:00 22,8 C 70 % 1012,3 hPa 0,0 l/m O-NO 0,92 h 630 W/m 21,3 km/h (4 Bft)
23.07.2014 13:00 23,3 C 66 % 1012,0 hPa 0,0 l/m O 0,92 h 658 W/m 24,0 km/h (4 Bft)
23.07.2014 14:00 24,3 C 60 % 1011,5 hPa 0,0 l/m O 1,00 h 677 W/m 24,1 km/h (4 Bft)
23.07.2014 15:00 24,8 C 56 % 1011,2 hPa 0,0 l/m O 0,92 h 647 W/m 23,6 km/h (4 Bft)
23.07.2014 16:00 25,1 C 51 % 1011,0 hPa 0,0 l/m O 0,92 h 550 W/m 26,1 km/h (4 Bft)
23.07.2014 17:00 25,0 C 50 % 1010,2 hPa 0,0 l/m O 1,00 h 380 W/m 24,8 km/h (4 Bft)
23.07.2014 18:00 24,3 C 54 % 1009,8 hPa 0,0 l/m O-NO 0,33 h 214 W/m 22,4 km/h (4 Bft)
23.07.2014 19:00 23,8 C 55 % 1009,8 hPa 0,0 l/m O-NO 0,83 h 189 W/m 17,3 km/h (3 Bft)
23.07.2014 20:00 22,4 C 58 % 1010,0 hPa 0,0 l/m O-NO 0,00 h 27 W/m 14,0 km/h (3 Bft)
23.07.2014 21:00 20,7 C 61 % 1010,4 hPa 0,0 l/m O-NO 0,00 h 5 W/m 10,7 km/h (2 Bft)
23.07.2014 22:00 19,5 C 66 % 1010,5 hPa 0,0 l/m O-NO 0,00 h 0 W/m 9,1 km/h (2 Bft)
23.07.2014 23:00 18,4 C 72 % 1010,4 hPa 0,0 l/m NO 0,00 h 0 W/m 8,2 km/h (2 Bft)
24.07.2014 00:00 17,0 C 78 % 1010,2 hPa 0,0 l/m NO 0,00 h 0 W/m 4,8 km/h (1 Bft)
24.07.2014 01:00 15,9 C 83 % 1009,8 hPa 0,0 l/m NO 0,00 h 0 W/m 4,0 km/h (1 Bft)
24.07.2014 02:00 15,1 C 86 % 1009,5 hPa 0,0 l/m NO 0,00 h 0 W/m 6,9 km/h (2 Bft)
24.07.2014 03:00 14,6 C 87 % 1008,9 hPa 0,0 l/m N 0,00 h 0 W/m 6,8 km/h (2 Bft)
24.07.2014 04:00 14,2 C 89 % 1008,7 hPa 0,0 l/m N 0,00 h 0 W/m 6,3 km/h (2 Bft)
24.07.2014 05:00 14,2 C 89 % 1008,6 hPa 0,0 l/m N 0,00 h 8 W/m 8,7 km/h (2 Bft)
24.07.2014 06:00 14,2 C 89 % 1008,7 hPa 0,0 l/m N-NO 0,17 h 42 W/m 11,2 km/h (2 Bft)
24.07.2014 07:00 15,6 C 85 % 1009,0 hPa 0,0 l/m N-NO 0,17 h 125 W/m 9,3 km/h (2 Bft)
24.07.2014 08:00 17,0 C 79 % 1009,1 hPa 0,0 l/m N-NO 0,67 h 262 W/m 7,6 km/h (2 Bft)
24.07.2014 09:00 18,5 C 74 % 1009,2 hPa 0,0 l/m N-NO 0,92 h 422 W/m 12,6 km/h (3 Bft)
24.07.2014 10:00 21,3 C 64 % 1009,0 hPa 0,0 l/m O-NO 0,92 h 620 W/m 13,3 km/h (3 Bft)
24.07.2014 11:00 23,1 C 56 % 1009,0 hPa 0,0 l/m O-NO 1,00 h 731 W/m 15,0 km/h (3 Bft)
24.07.2014 12:00 24,1 C 48 % 1009,1 hPa 0,0 l/m O-NO 0,83 h 722 W/m 18,2 km/h (3 Bft)
24.07.2014 13:00 24,9 C 44 % 1009,1 hPa 0,0 l/m O-NO 0,67 h 668 W/m 16,6 km/h (3 Bft)
24.07.2014 14:00 25,3 C 43 % 1008,8 hPa 0,0 l/m NO 1,00 h 882 W/m 16,1 km/h (3 Bft)
24.07.2014 15:00 26,1 C 40 % 1008,8 hPa 0,0 l/m N-NO 1,00 h 789 W/m 14,5 km/h (3 Bft)
24.07.2014 16:00 24,9 C 44 % 1008,7 hPa 0,0 l/m N-NO 0,33 h 371 W/m 17,2 km/h (3 Bft)
24.07.2014 17:00 24,3 C 47 % 1008,6 hPa 0,0 l/m N-NO 0,58 h 345 W/m 12,6 km/h (3 Bft)
24.07.2014 18:00 24,5 C 45 % 1008,5 hPa 0,0 l/m N 0,83 h 262 W/m 8,7 km/h (2 Bft)
24.07.2014 19:00 22,0 C 59 % 1008,6 hPa 0,0 l/m N 0,00 h 62 W/m 3,6 km/h (1 Bft)
24.07.2014 20:00 20,1 C 65 % 1008,6 hPa 0,0 l/m N 0,08 h 31 W/m 2,4 km/h (1 Bft)
24.07.2014 21:00 19,0 C 70 % 1009,4 hPa 0,0 l/m S 0,00 h 5 W/m 4,3 km/h (1 Bft)
24.07.2014 22:00 17,8 C 77 % 1010,0 hPa 0,0 l/m S-SW 0,00 h 0 W/m 5,1 km/h (1 Bft)
24.07.2014 23:00 16,4 C 83 % 1010,1 hPa 0,0 l/m N 0,00 h 0 W/m 0,5 km/h (0 Bft)
25.07.2014 00:00 15,5 C 87 % 1010,2 hPa 0,0 l/m N 0,00 h 0 W/m 0,4 km/h (0 Bft)
25.07.2014 01:00 14,7 C 89 % 1010,2 hPa 0,0 l/m N 0,00 h 0 W/m 0,4 km/h (0 Bft)
25.07.2014 02:00 13,8 C 93 % 1010,0 hPa 0,0 l/m N 0,00 h 0 W/m 0,4 km/h (0 Bft)
25.07.2014 03:00 13,2 C 95 % 1010,0 hPa 0,0 l/m N 0,00 h 0 W/m 0,3 km/h (0 Bft)
25.07.2014 04:00 12,5 C 96 % 1010,1 hPa 0,0 l/m S-SW 0,00 h 0 W/m 0,7 km/h (0 Bft)
25.07.2014 05:00 12,1 C 96 % 1010,4 hPa 0,0 l/m N 0,00 h 5 W/m 0,0 km/h (0 Bft)
25.07.2014 06:00 11,9 C 97 % 1010,6 hPa 0,0 l/m N 0,00 h 27 W/m 1,1 km/h (0 Bft)
25.07.2014 07:00 13,4 C 96 % 1010,9 hPa 0,0 l/m S-SW 0,33 h 134 W/m 2,0 km/h (1 Bft)
25.07.2014 08:00 16,5 C 89 % 1010,9 hPa 0,0 l/m S-SW 1,00 h 288 W/m 6,4 km/h (2 Bft)
25.07.2014 09:00 18,9 C 81 % 1010,8 hPa 0,0 l/m S-SW 1,00 h 448 W/m 10,1 km/h (2 Bft)
25.07.2014 10:00 21,1 C 75 % 1010,8 hPa 0,0 l/m S-SW 1,00 h 576 W/m 10,6 km/h (2 Bft)
25.07.2014 11:00 22,7 C 70 % 1010,7 hPa 0,0 l/m S-SW 1,00 h 731 W/m 12,0 km/h (2 Bft)
25.07.2014 12:00 23,6 C 62 % 1010,2 hPa 0,0 l/m S 0,50 h 445 W/m 13,7 km/h (3 Bft)
25.07.2014 13:00 24,0 C 56 % 1010,1 hPa 0,0 l/m S 0,42 h 513 W/m 10,3 km/h (2 Bft)
25.07.2014 14:00 25,3 C 49 % 1009,8 hPa 0,0 l/m N 0,92 h 865 W/m 13,4 km/h (3 Bft)
25.07.2014 15:00 25,3 C 50 % 1009,6 hPa 0,0 l/m N-NO 0,50 h 478 W/m 10,3 km/h (2 Bft)
25.07.2014 16:00 26,0 C 47 % 1009,2 hPa 0,0 l/m N-NO 1,00 h 678 W/m 8,3 km/h (2 Bft)
25.07.2014 17:00 26,2 C 43 % 1008,6 hPa 0,0 l/m W 1,00 h 518 W/m 7,0 km/h (2 Bft)
25.07.2014 18:00 25,0 C 48 % 1008,6 hPa 0,0 l/m N 0,33 h 180 W/m 8,7 km/h (2 Bft)
25.07.2014 19:00 23,8 C 54 % 1008,8 hPa 0,0 l/m N 0,75 h 172 W/m 8,7 km/h (2 Bft)
25.07.2014 20:00 21,3 C 66 % 1008,8 hPa 0,0 l/m N 0,00 h 17 W/m 3,2 km/h (1 Bft)
25.07.2014 21:00 19,1 C 74 % 1009,3 hPa 0,0 l/m N 0,00 h 0 W/m 2,9 km/h (1 Bft)
25.07.2014 22:00 17,8 C 79 % 1009,5 hPa 0,0 l/m N 0,00 h 0 W/m 2,8 km/h (1 Bft)
25.07.2014 23:00 17,7 C 77 % 1009,7 hPa 0,0 l/m N 0,00 h 0 W/m 4,0 km/h (1 Bft)
26.07.2014 00:00 16,8 C 83 % 1009,8 hPa 0,0 l/m N 0,00 h 0 W/m 0,1 km/h (0 Bft)
26.07.2014 01:00 16,9 C 84 % 1010,0 hPa 0,0 l/m S-SW 0,00 h 0 W/m 8,2 km/h (2 Bft)
26.07.2014 02:00 17,4 C 83 % 1009,9 hPa 0,0 l/m S-SW 0,00 h 0 W/m 4,4 km/h (1 Bft)
26.07.2014 03:00 16,9 C 88 % 1009,5 hPa 0,0 l/m S-SW 0,00 h 0 W/m 0,8 km/h (0 Bft)
26.07.2014 04:00 16,5 C 91 % 1008,9 hPa 0,0 l/m S-SW 0,00 h 0 W/m 2,3 km/h (1 Bft)
26.07.2014 05:00 16,1 C 92 % 1009,0 hPa 0,0 l/m N 0,00 h 0 W/m 2,3 km/h (1 Bft)
26.07.2014 06:00 15,9 C 92 % 1009,0 hPa 0,0 l/m N 0,00 h 15 W/m 1,1 km/h (0 Bft)
26.07.2014 07:00 16,3 C 92 % 1008,9 hPa 0,0 l/m S-SW 0,00 h 65 W/m 4,3 km/h (1 Bft)
26.07.2014 08:00 16,8 C 88 % 1009,5 hPa 0,0 l/m S-SW 0,00 h 54 W/m 7,8 km/h (2 Bft)
26.07.2014 09:00 16,4 C 93 % 1010,1 hPa 0,4 l/m S 0,00 h 60 W/m 2,0 km/h (1 Bft)
26.07.2014 10:00 17,0 C 95 % 1010,3 hPa 0,6 l/m S 0,00 h 159 W/m 1,3 km/h (1 Bft)
26.07.2014 11:00 17,7 C 91 % 1010,3 hPa 0,2 l/m NW 0,00 h 146 W/m 7,8 km/h (2 Bft)
26.07.2014 12:00 17,2 C 92 % 1010,2 hPa 0,4 l/m NW 0,00 h 122 W/m 7,9 km/h (2 Bft)
26.07.2014 13:00 17,2 C 94 % 1010,3 hPa 0,4 l/m NW 0,00 h 130 W/m 5,3 km/h (1 Bft)
26.07.2014 14:00 17,5 C 93 % 1010,2 hPa 0,0 l/m W-NW 0,00 h 161 W/m 8,3 km/h (2 Bft)
26.07.2014 15:00 17,9 C 92 % 1010,1 hPa 0,0 l/m W-NW 0,00 h 152 W/m 11,4 km/h (2 Bft)
26.07.2014 16:00 18,0 C 90 % 1010,0 hPa 0,0 l/m NW 0,00 h 145 W/m 12,9 km/h (3 Bft)
26.07.2014 17:00 18,0 C 88 % 1010,1 hPa 0,0 l/m W-NW 0,00 h 80 W/m 12,6 km/h (3 Bft)
26.07.2014 18:00 17,9 C 88 % 1010,4 hPa 0,0 l/m W-NW 0,00 h 59 W/m 11,6 km/h (2 Bft)
26.07.2014 19:00 17,5 C 90 % 1010,9 hPa 0,0 l/m W-NW 0,00 h 29 W/m 10,1 km/h (2 Bft)
26.07.2014 20:00 16,8 C 93 % 1011,8 hPa 0,4 l/m W-NW 0,00 h 7 W/m 10,3 km/h (2 Bft)
26.07.2014 21:00 16,2 C 95 % 1012,2 hPa 0,2 l/m W-SW 0,00 h 0 W/m 5,6 km/h (1 Bft)
26.07.2014 22:00 15,6 C 96 % 1012,9 hPa 1,8 l/m S-SW 0,00 h 0 W/m 10,9 km/h (2 Bft)
26.07.2014 23:00 15,2 C 97 % 1012,9 hPa 1,6 l/m W 0,00 h 0 W/m 9,1 km/h (2 Bft)
27.07.2014 00:00 15,2 C 97 % 1012,7 hPa 0,8 l/m W 0,00 h 0 W/m 11,0 km/h (2 Bft)
27.07.2014 01:00 15,2 C 97 % 1012,9 hPa 1,6 l/m NW 0,00 h 0 W/m 9,2 km/h (2 Bft)
27.07.2014 02:00 15,1 C 97 % 1012,7 hPa 0,4 l/m W-NW 0,00 h 0 W/m 9,5 km/h (2 Bft)
27.07.2014 03:00 15,0 C 98 % 1012,7 hPa 0,2 l/m W 0,00 h 0 W/m 5,6 km/h (1 Bft)
27.07.2014 04:00 15,0 C 98 % 1012,8 hPa 1,0 l/m W 0,00 h 0 W/m 4,0 km/h (1 Bft)
27.07.2014 05:00 14,9 C 99 % 1012,9 hPa 3,2 l/m W 0,00 h 0 W/m 5,2 km/h (1 Bft)
27.07.2014 06:00 14,8 C 99 % 1013,1 hPa 0,4 l/m W 0,00 h 7 W/m 3,2 km/h (1 Bft)
27.07.2014 07:00 15,0 C 99 % 1013,5 hPa 1,2 l/m W 0,00 h 27 W/m 3,1 km/h (1 Bft)
27.07.2014 08:00 15,1 C 99 % 1014,0 hPa 0,8 l/m W 0,00 h 24 W/m 5,5 km/h (1 Bft)
27.07.2014 09:00 15,3 C 99 % 1014,3 hPa 0,4 l/m SW 0,00 h 24 W/m 8,3 km/h (2 Bft)
27.07.2014 10:00 15,5 C 99 % 1014,2 hPa 0,2 l/m SW 0,00 h 58 W/m 10,3 km/h (2 Bft)
27.07.2014 11:00 16,4 C 99 % 1014,3 hPa 0,0 l/m SW 0,00 h 150 W/m 9,4 km/h (2 Bft)
27.07.2014 12:00 17,3 C 97 % 1014,5 hPa 0,0 l/m SW 0,00 h 132 W/m 11,2 km/h (2 Bft)
27.07.2014 13:00 17,1 C 97 % 1014,6 hPa 0,0 l/m S-SW 0,00 h 72 W/m 9,3 km/h (2 Bft)
27.07.2014 14:00 17,0 C 97 % 1014,6 hPa 0,0 l/m S-SW 0,00 h 125 W/m 11,8 km/h (2 Bft)
27.07.2014 15:00 17,8 C 95 % 1014,2 hPa 0,0 l/m S-SW 0,00 h 216 W/m 13,8 km/h (3 Bft)
27.07.2014 16:00 18,9 C 92 % 1013,8 hPa 0,0 l/m S-SW 0,17 h 326 W/m 16,6 km/h (3 Bft)
27.07.2014 17:00 19,0 C 92 % 1013,8 hPa 0,0 l/m S-SW 0,42 h 303 W/m 17,7 km/h (3 Bft)
27.07.2014 18:00 18,9 C 92 % 1013,7 hPa 0,0 l/m S-SW 0,00 h 142 W/m 12,6 km/h (3 Bft)
27.07.2014 19:00 17,9 C 94 % 1014,0 hPa 0,0 l/m S-SW 0,00 h 46 W/m 13,0 km/h (3 Bft)
27.07.2014 20:00 17,0 C 95 % 1014,2 hPa 0,0 l/m S-SW 0,00 h 15 W/m 11,2 km/h (2 Bft)
27.07.2014 21:00 16,4 C 96 % 1014,3 hPa 0,0 l/m S-SW 0,00 h 0 W/m 9,7 km/h (2 Bft)
27.07.2014 22:00 16,4 C 95 % 1014,3 hPa 0,0 l/m S-SW 0,00 h 0 W/m 4,9 km/h (1 Bft)
27.07.2014 23:00 16,2 C 96 % 1014,2 hPa 0,0 l/m N 0,00 h 0 W/m 0,0 km/h (0 Bft)
Min-Datum _ 25.07.14 24.07.14 22.07.14 - - - - 21.07.14
_ Min-Zeit 06:20 15:50 04:55 - - - - 00:20
Minimum _ 11,8 C 37 % 1007,6 hPa - - - - 0,0 km/h (0 Bft)
Max-Datum _ 25.07.14 23.07.14 27.07.14 22.07.14 - 22.07.14 25.07.14 23.07.14
_ Max-Zeit 17:55 03:35 13:40 14:05 - 18:30 14:55 16:55
Maximum _ 26,5 C 100 % 1014,7 hPa 16,2 l/m - 0,08 h 983 W/m 35,4 km/h
O (5 Bft)
Durchschnitt _ 17,9 C 85 % 1010,7 hPa #82,2 l/m SW #30:45 h 218 W/m 9,0 km/h (2 Bft)